Tracking 30986 objects as of 9-Jul-2025
HD Live streaming from Space Station
objects crossing your sky now

PSLV R/B

Track PSLV R/B now!
10-day predictions


NORAD ID: 39093
Int'l Code: 2013-009H
Perigee: 706.4 km
Apogee: 769.5 km
Inclination: 98.1 °
Period: 99.4 minutes
Semi major axis: 7108 km
RCS: 7.397 m2 (large)
Launch date: February 25, 2013
Source: India (IND)
Launch site: SRIHARIKOTA (SRI)

Note: This is a ROCKET BODY
Your satellite tracking list
Your tracking list is empty




NASA's NSSDC Master Catalog

Two Line Element Set (TLE):
1 39093U 13009H   25189.83442381  .00000193  00000-0  62155-4 0  9991
2 39093  98.0860  42.7558 0044367  14.9965 345.2533 14.48423755652984
Source of the keplerian elements: AFSPC